Location: Strawberry
(45.6646°N, 111.9596°W)
Time: 13:41:09
(UTC+00:00)

Transit 4A - Pass Details

Date: 12 October 2022
Orbit: 871 x 973 km, 66.8° (Epoch: 26 November)

Event Time Altitude Azimuth Distance (km) Brightness Sun altitude
Rises 12:00:23 0° 327° (NNW) 3,491 10.7 -18.2°
Reaches altitude 10° 12:02:54 10° 327° (NNW) 2,540 9.9 -17.8°
Maximum altitude 12:08:46 89° 59° (ENE) 878 7.7 -16.8°
Drops below altitude 10° 12:14:35 10° 149° (SSE) 2,515 10.5 -15.8°
Sets 12:17:03 0° 149° (SSE) 3,454 11.2 -15.4°
